Погода Мыс Биллингс

Погода Мыс Биллингс : погода сейчас, прогноз погоды и архив. Всё, что Вы хотите узнать о погоде Мыс Биллингс!

Поиск расширенной информации на нашем сайте:

Другие новости

Новости СМИ2

Главная страница сайта

Новости сайта

03.07.2017

Напоминаем, что на нашем специализированном сайте Метеоцентр.Азия вы можете получить высокодетализированные автоматические прогнозы погоды по пунктам России, СНГ и мира в авиационном формате (включающие направление и скорость ветра, видимость, явления погоды, количество и форму облачности, нижнюю и верхнюю границу облачности).


Погода Мыс Биллингс - сегодня

Время (UTC), дата Ветер
(°,м/с) 
Видим.   Явления Облачность Т
(°С)
Тd
(°С)
f(%) Тe
(°С)
Pmin
(гПа)
dP
(гПа)
Po
(мм)
O2
(г/м3)
Тmin Tmax R s Состояние
почвы
00 08.11.18 270 (З) 2{04}  20000 м    9/6 600 м средняя 
[Sc|Ac trans]
-12.6 -13.9 90 -15  1016.7  762  323           
12 08.11.18 200 (Ю) 2{04}  20000 м    3/0 средняя 
[Ac trans]
-22.9 -24.8 84 -26  1018.9  0.8  764  338           
00 09.11.18 050 (СВ) 4{06}  20000 м    8/0 средняя 
[Ac trans]
-12.3 -13.6 90 -17  1020.6  0.6  765  324           
18 09.11.18 040 (СВ) 7{09}  20000 м  позёмок  9/0 средняя 
[Ac trans]
-7.6 -8.9 90 -13  1023.4  1.1  767  319  -8.5      16  неравномерный
сухой снег
100% 
00 10.11.18 030 (СВ) 10 км    10/0 средняя 
[As trans]
-7.4 -9.1 88 -10  1027.1  3.7  770  320           
18 10.11.18 330 (СЗ) 4{06}  4000 м  {снег}  10/0 средняя 
[As op]
-9.8 -11.5 87 -14    778  326  -9.8    0.8  16  неравномерный
сухой снег
100% 
12 11.11.18 190 (Ю) 5{07}  20000 м    3/0 средняя 
[Ac trans]
-25.5 -28 80 -33  1042.3  -0.3  781  349           
00 12.11.18 190 (Ю) 5{07}  20000 м    3/0 верхняя 
[Ci fib]
-23.5 -25.3 85 -31  1040.3  -1.2  780  346           
12 12.11.18 140 (ЮВ) 2{04}  20000 м    4/0 верхняя 
[Ci fib]
-20.2 -22.1 85 -23  1035.4  -3.1  776  339           
18 12.11.18 140 (ЮВ) 3{05}  20000 м    4/0 верхняя 
[Ci fib]
-19.4 -21.3 85 -24  1032.6  -2.8  774  337  -22      16  неравномерный
сухой снег
100% 
00 13.11.18 190 (Ю) 4{06}  20000 м    3/0 верхняя 
[Ci fib]
-19.3 -22.6 75 -25  1034.9  2.3  776  338           
12 13.11.18 190 (Ю) 4{06}  20000 м    ясно 
-23 -26.3 74 -29  1034.2  -2  775  343           
12 14.11.18 210 (ЮЗ) 3{05}  20000 м    ясно 
-14.6 -18.9 70 -18  1025.1  -0.3  769  329           
00 15.11.18 190 (Ю) 5{07}  20000 м    ясно 
-19.3 -22.6 75 -26  1023.6  -0.7  767  334           
12 15.11.18 210 (ЮЗ) 4{06}  20000 м    ясно 
-21.6 -24.8 75 -27  1027.1  1.4  770  339           
00 16.11.18 220 (ЮЗ) 2{04}  20000 м    3/0 верхняя 
[Ci fib]
-23.9 -26.4 80 -27  1025.3  -2.9  769  341           
12 16.11.18 200 (Ю) 2{04}  20000 м    ясно 
-27.2 -29.6 80 -31  1021  -2.1  765  344           
00 17.11.18 200 (Ю) 3{05}  20000 м    3/0 средняя 
[Ac lent]
-25.9 -28.4 79 -31  1017.4  -2.3  763  341           
12 17.11.18 230 (ЮЗ) 3{05}  20000 м    6/0 верхняя 
[Ci fib]
-23.5 -25.3 85 -28  1017.4  0.9  763  338           
18 17.11.18 240 (ЮЗ) 3{05}  20000 м    8/0 верхняя 
[Ci fib]
-23 -24.9 84 -28  1018.6  1.2  764  338  -26.7      16  неравномерный
сухой снег
100% 
18 18.11.18 250 (З) 4{06}  4000 м  слаб. снег  10/0 средняя 
[As op]
-13.3 -14.6 90 -18  1021.6  0.8  766  326  -13.3    0.8  16  неравномерный
сухой снег
100% 
18 19.11.18 340 (С) 4{06}  4000 м  слаб. снег  10/0 средняя 
[As op]
-13.7 -15 90 -18  1021.5  -0.3  766  326  -13.7    0.9  16  неравномерный
сухой снег
100% 
12 20.11.18 280 (З) 3{05}  10 км    3/0 средняя 
[Ac lent]
-22.9 -24.8 84 -28  1020.3  -0.9  765  338           
18 20.11.18 270 (З) 3{05}  10 км    3/0 средняя 
[Ac lent]
-23.6 -25.5 84 -28  1019.7  -0.6  764  339  -23.6      17  неравномерный
сухой снег
100% 
00 21.11.18 270 (З) 3{05}  20000 м    3/0 верхняя 
[Ci fib]
-23.4 -25.2 85 -28  1019  -0.7  764  338           
Время (UTC), дата Ветер
(°,м/с) 
Видим.   Явления Облачность Т
(°С)
Тd
(°С)
f(%) Тe
(°С)
Pmin
(гПа)
dP
(гПа)
Po
(мм)
O2
(г/м3)
Тmin Tmax R s Состояние
почвы

Для получения пояснительной информации подведите курсор к названию столбца.

ПОГОДА Мыс Биллингс - архив

Всё, что Вы хотите узнать о погоде Мыс Биллингс - удобно и подробно!

Выберите нужную дату (начиная с 1 января 2015* года) и нажмите кнопку "Найти".
Будут отображены архивные сводки погоды по пункту Мыс Биллингс, начиная с указанной даты.


Отображать данные в формате CSV (для использования в таблицах Excel)


Внимание! Наш архив погоды предназначен исключительно для личного некоммерческого использования в познавательных целях. Если Вам необходимы официальные справки о состоянии погоды (для производственных, юридических, коммерческих и т.п. целей), обращайтесь в органы Росгидромета.

*Примечание: данная дата относится к архиву по метеостанциям СССР (Россия, СНГ, Балтия).
Архив по метеостанциям Зарубежной Европы и Азии (кроме Китая) хранится 10 дней, по другим регионам земного шара (Китай, Африка, Америка, Австралия, Океания) - 1 день.

Мыс Биллингс - район местоположения метеостанции


Название, широта, долгота, высота метеостанции:
Мыс Биллингс 69.88°ш. 175.76°д. 3 м над ур. моря [Российская Федерация]

Дополнительная информация

В oтличие oт бoльшинства пoгoдных сайтoв мы публикуем пoдрoбную метеoинфoрмацию в детальнoм прoфессиoнальнoм фoрмате.

Характеристики температуры и влажнoсти вoздуха измеряются на высoте 2 м в тени вдали oт зданий и деревьев.
Скoрoсть ветра измеряется на высoте 10 м (на урoвне рoста челoвека скoрoсть ветра ниже в 1.5-2 раза). Если метеoстанция нахoдится в гoрoде или в лесу, тo скoрoсть ветра занижена на 2-4 м/с пo сравнению с oткрытым местoм. Скoрoсть ветра над акватoриями крупных рек и oзёр, а также на вершинах хoлмoв на 2-5 м/с выше, чем в oбычных услoвиях.
Атмoсфернoе давление в разных тoчках местнoсти мoжет значительнo oтличаться oт давления на метеoстанции, в зависимoсти oт услoвий рельефа (при пoдъёме на 10 м давление пoнижается примернo на 1 мм рт.ст.).